Tracking 35274 objects as of 11-Sep-2026
HD Live streaming from Space Station
objects crossing your sky now

WIKA (DIAL)


WIKA (DIAL) is no longer on orbit


NORAD ID: 4344
Int'l Code: 1970-017A
Launch date: March 10, 1970
Source: Germany (GER)
Launch site: FRENCH GUIANA (FRGUI)
Decay date: 1978-10-05
Your satellite tracking list
Your tracking list is empty




NASA's NSSDC Master Catalog

Two Line Element Set (TLE):
1 04344U 70017  A 78118.08956463  .00110993 +00000-0 +00000-0 0  9999
2 04344 005.4019 236.5877 0276393 122.1615 240.7189 15.31341171431390
Source of the keplerian elements: AFSPC